Stations météo

réclame
Mon MeteoGroup
Vlissingen, Pays-Bas (6310): Température de l'air & dewpoint: 13.01.2018 23:00:00 - 19.01.2018 23:00:00 (CET)Vlissingen, Pays-Bas (6310): Température de l'air 5cm: 13.01.2018 23:00:00 - 19.01.2018 23:00:00 (CET)Vlissingen, Pays-Bas (6310): Vitesse du vent & gusts: 13.01.2018 23:00:00 - 19.01.2018 23:00:00 (CET)Vlissingen, Pays-Bas (6310): Direction du vent: 13.01.2018 23:00:00 - 19.01.2018 23:00:00 (CET)Vlissingen, Pays-Bas (6310): reduced air pressure: 13.01.2018 23:00:00 - 19.01.2018 23:00:00 (CET)Vlissingen, Pays-Bas (6310): visibility: 13.01.2018 23:00:00 - 19.01.2018 23:00:00 (CET)Vlissingen, Pays-Bas (6310): Quantités de précipitations: 13.01.2018 23:00:00 - 19.01.2018 23:00:00 (CET)
Date & Time tt [°C] td [°C] tt 5cm [°C] ff [km/h] ff [knt] fx [km/h] fx [knt] dd ppp [hPa] vv [km] rr [mm]
19.01.2018 23:00:00 5,8 1,9 4,6 32 18 43 23 W 1008,6 21 0,0
19.01.2018 22:00:00 3,9 1,7 3,1 29 16 - - SW 1008,7 10 0,0
19.01.2018 21:00:00 4,6 1,5 4,0 24 13 32 18 WSW 1008,7 10 0,0
19.01.2018 20:00:00 6,0 0,6 4,8 29 16 40 21 W 1008,6 10 0,0
19.01.2018 19:00:00 5,9 0,9 4,7 29 16 36 19 W 1008,8 10 0,0
19.01.2018 18:00:00 5,7 1,3 4,7 31 17 40 21 W 1008,6 10 0,0
19.01.2018 17:00:00 5,6 1,3 4,5 29 16 40 21 W 1008,5 10 0,0
19.01.2018 16:00:00 5,6 1,5 4,7 31 17 - - WSW 1008,6 10 0,0
19.01.2018 15:00:00 6,0 2,0 6,0 34 18 40 21 W 1008,5 10 0,0
19.01.2018 14:00:00 5,7 1,5 5,7 34 18 40 21 WSW 1008,8 10 0,0
19.01.2018 13:00:00 6,0 2,5 5,1 26 14 32 18 WSW 1009,0 10 0,0
19.01.2018 12:00:00 6,0 3,5 6,5 21 11 25 14 WSW 1009,0 10 0,0
19.01.2018 11:00:00 4,6 2,7 4,4 22 12 32 18 WSW 1009,0 10 0,0
19.01.2018 10:00:00 5,2 1,5 4,2 24 13 - - W 1008,5 10 0,0
19.01.2018 09:00:00 4,8 1,3 3,6 21 11 36 19 W 1008,1 10 0,0
19.01.2018 08:00:00 5,1 1,4 4,0 26 14 43 23 W 1007,4 10 0,0
19.01.2018 07:00:00 5,2 1,5 4,2 31 17 43 23 WNW 1007,0 10 0,0
19.01.2018 06:00:00 5,3 1,5 4,4 31 17 47 25 W 1006,7 10 0,0
19.01.2018 05:00:00 5,1 1,4 4,1 37 20 50 27 WNW 1006,1 10 0,0
19.01.2018 04:00:00 5,4 1,6 4,3 37 20 - - WNW 1005,5 10 0,0
19.01.2018 03:00:00 5,1 2,2 3,9 28 15 47 25 WNW 1005,2 10 0,4
19.01.2018 02:00:00 5,3 1,6 4,4 35 19 50 27 WNW 1004,2 10 0,0
19.01.2018 01:00:00 5,7 2,0 4,7 31 17 54 29 W 1003,8 10 0,0
19.01.2018 00:00:00 5,9 2,9 4,8 22 12 32 18 W 1003,4 10 0,0
18.01.2018 23:00:00 5,1 3,2 3,9 16 9 36 19 WNW 1003,0 10 1,8
18.01.2018 22:00:00 4,8 3,2 4,2 22 12 - - WSW 1002,5 10 0,0
18.01.2018 21:00:00 5,0 2,7 3,8 24 13 36 19 WSW 1002,3 10 0,6
18.01.2018 20:00:00 4,8 2,6 4,5 34 18 43 23 W 1002,5 10 0,9
18.01.2018 19:00:00 6,5 3,3 5,1 11 6 18 10 W 1001,8 10 0,0
18.01.2018 18:00:00 6,7 2,9 5,9 18 10 29 16 W 1001,9 10 0,0
18.01.2018 17:00:00 7,0 2,4 6,3 21 11 36 19 W 1002,2 10 0,0
18.01.2018 16:00:00 6,8 2,8 6,3 28 15 - - W 1002,1 10 0,0
18.01.2018 15:00:00 7,0 2,9 6,6 34 18 47 25 W 1001,5 10 0,0
18.01.2018 14:00:00 7,1 2,4 7,4 31 17 50 27 W 1001,3 10 0,0
18.01.2018 13:00:00 6,5 2,0 6,1 42 23 65 35 WNW 1000,8 10 0,0
18.01.2018 12:00:00 6,5 1,6 6,3 52 28 72 39 WNW 1000,0 10 0,0
18.01.2018 11:00:00 6,6 1,5 6,3 57 31 79 43 WNW 997,9 10 0,0
18.01.2018 10:00:00 7,2 1,5 6,6 63 34 - - W 994,5 9 0,0
18.01.2018 09:00:00 8,7 3,5 8,0 85 46 119 64 W 991,3 7 0,0
18.01.2018 08:00:00 9,4 6,1 8,6 81 44 112 60 WSW 988,6 4,8 0,0
18.01.2018 07:00:00 10,0 6,5 9,3 86 47 104 56 WSW 988,5 6 0,0
18.01.2018 06:00:00 8,8 7,1 7,9 55 30 76 41 SW 990,2 10 0,0
18.01.2018 05:00:00 6,6 5,6 5,9 54 29 68 37 SSW 992,1 6 0,3
18.01.2018 04:00:00 5,4 4,4 4,9 48 26 - - SSW 994,7 3,2 1,3
18.01.2018 03:00:00 5,3 3,9 4,6 42 23 58 31 S 998,3 6 2,5
18.01.2018 02:00:00 5,1 3,1 4,5 37 20 54 29 SSW 1001,5 10 0,7
18.01.2018 01:00:00 5,9 2,8 5,0 32 18 50 27 SW 1003,7 13 0,3
18.01.2018 00:00:00 6,4 3,0 5,9 40 21 47 25 SW 1005,6 10 0,0
17.01.2018 23:00:00 6,4 2,8 5,8 42 23 50 27 WSW 1006,5 10 0,0
17.01.2018 22:00:00 6,4 2,3 5,7 37 20 - - WSW 1007,2 10 0,0
17.01.2018 21:00:00 6,5 1,7 5,7 35 19 47 25 W 1007,3 10 0,0
17.01.2018 20:00:00 6,6 1,7 6,1 37 20 47 25 W 1007,4 10 0,0
17.01.2018 19:00:00 6,8 1,2 6,1 39 21 58 31 W 1007,3 10 0,0
17.01.2018 18:00:00 6,5 1,2 5,8 37 20 50 27 W 1007,4 10 0,0
17.01.2018 17:00:00 6,6 1,1 6,0 37 20 58 31 W 1007,0 10 0,0
17.01.2018 16:00:00 6,4 0,7 5,7 39 21 - - W 1006,3 10 0,0
17.01.2018 15:00:00 6,6 0,9 6,1 42 23 68 37 W 1005,2 10 0,0
17.01.2018 14:00:00 6,4 1,1 5,6 44 24 68 37 W 1004,8 10 0,0
17.01.2018 13:00:00 6,3 0,7 6,0 57 31 79 43 WNW 1003,6 10 0,0
17.01.2018 12:00:00 6,2 0,6 5,6 50 27 72 39 WNW 1002,7 10 0,0
17.01.2018 11:00:00 5,7 0,0 5,3 59 32 79 43 WNW 1001,9 10 0,0
17.01.2018 10:00:00 5,5 0,0 4,9 54 29 76 41 WNW 1000,8 10 0,0
17.01.2018 09:00:00 5,3 -0,5 4,6 52 28 72 39 WNW 999,7 10 0,0
17.01.2018 08:00:00 4,9 -1,6 4,4 59 32 79 43 WNW 998,3 10 0,0
17.01.2018 07:00:00 4,8 -1,6 4,0 48 26 72 39 W 997,2 10 0,0
17.01.2018 06:00:00 4,8 -1,6 4,1 54 29 72 39 WNW 996,4 10 0,0
17.01.2018 05:00:00 5,0 -1,5 4,1 52 28 72 39 WNW 995,2 10 0,0
17.01.2018 04:00:00 4,9 -1,4 4,0 52 28 - - WNW 994,7 10 0,1
17.01.2018 03:00:00 4,8 -0,2 3,9 41 22 65 35 W 993,4 10 0,7
17.01.2018 02:00:00 5,2 0,7 3,7 46 25 65 35 W 993,3 10 0,1
17.01.2018 01:00:00 5,5 0,8 4,6 44 24 61 33 W 993,2 10 0,0
17.01.2018 00:00:00 5,6 1,2 5,0 55 30 72 39 W 992,8 10 0,0
16.01.2018 23:00:00 5,9 2,5 5,1 34 18 47 25 W 992,5 10 0,0
16.01.2018 22:00:00 5,9 1,9 5,3 35 19 58 31 W 992,9 10 0,0
16.01.2018 21:00:00 6,4 1,9 5,6 39 21 54 29 W 993,3 10 0,0
16.01.2018 20:00:00 6,4 1,5 5,5 39 21 50 27 WSW 993,7 10 0,0
16.01.2018 19:00:00 5,9 1,9 5,5 29 16 40 21 W 994,2 10 0,0
16.01.2018 18:00:00 6,5 0,6 5,3 31 17 43 23 W 994,7 10 0,0
16.01.2018 17:00:00 6,7 0,6 5,9 44 24 61 33 W 995,1 10 0,0
16.01.2018 16:00:00 6,7 1,0 5,9 48 26 61 33 W 994,7 10 0,0
16.01.2018 15:00:00 6,9 0,2 6,1 44 24 61 33 W 994,4 10 0,0
16.01.2018 14:00:00 6,9 1,7 6,8 40 21 58 31 W 994,7 12 0,0
16.01.2018 13:00:00 6,9 1,7 6,5 46 25 61 33 W 994,9 10 0,0
16.01.2018 12:00:00 7,0 1,5 6,2 42 23 61 33 W 995,0 10 0,0
16.01.2018 11:00:00 6,7 2,1 6,0 39 21 58 31 W 994,3 10 0,0
16.01.2018 10:00:00 6,9 2,3 6,1 34 18 54 29 W 993,6 10 0,0
16.01.2018 09:00:00 6,9 3,1 6,2 42 23 61 33 W 992,6 10 0,0
16.01.2018 08:00:00 7,2 3,9 6,5 35 19 50 27 W 991,6 10 0,0
16.01.2018 07:00:00 7,1 4,5 6,4 44 24 54 29 WSW 991,1 10 0,0
16.01.2018 06:00:00 7,0 4,4 6,4 41 22 50 27 WSW 991,2 10 0,0
16.01.2018 05:00:00 7,0 4,3 6,4 42 23 54 29 WSW 991,8 10 0,0
16.01.2018 04:00:00 6,7 4,6 6,2 34 18 43 23 WSW 992,4 10 0,0
16.01.2018 03:00:00 7,2 4,2 6,1 41 22 58 31 WSW 992,5 10 0,0
16.01.2018 02:00:00 6,9 4,7 6,2 41 22 50 27 WSW 992,9 10 0,0
16.01.2018 01:00:00 7,0 4,6 6,3 46 25 61 33 WSW 993,6 10 0,5
16.01.2018 00:00:00 7,1 4,7 6,3 35 19 50 27 W 994,0 10 0,0
15.01.2018 23:00:00 6,6 4,9 5,7 28 15 43 23 W 993,8 10 0,0
15.01.2018 22:00:00 7,7 4,5 6,7 31 17 43 23 W 993,1 10 0,0
15.01.2018 21:00:00 7,7 4,4 6,6 34 18 68 37 WNW 992,3 10 0,3
15.01.2018 20:00:00 8,2 6,7 7,4 52 28 61 33 WSW 991,5 10 0,0
15.01.2018 19:00:00 7,9 7,0 7,1 39 21 47 25 SW 991,0 10 0,1
15.01.2018 18:00:00 7,1 6,3 6,6 50 27 61 33 SSW 991,4 5 2,4
15.01.2018 17:00:00 6,8 5,5 6,2 54 29 76 41 SSW 991,6 5 1,2
15.01.2018 16:00:00 6,5 5,2 5,9 54 29 68 37 S 993,4 3,3 2,4
15.01.2018 15:00:00 6,5 5,0 5,9 57 31 76 41 S 995,3 5 0,7
15.01.2018 14:00:00 6,2 5,0 5,8 57 31 68 37 S 997,5 4,8 0,1
15.01.2018 13:00:00 6,0 4,7 5,5 57 31 72 39 S 999,8 2,5 0,3
15.01.2018 12:00:00 5,9 4,4 5,3 52 28 65 35 S 1002,2 4,7 1,7
15.01.2018 11:00:00 5,6 4,4 5,2 44 24 58 31 S 1004,3 4,6 0,8
15.01.2018 10:00:00 5,5 4,0 5,1 41 22 54 29 S 1006,0 10 0,0
15.01.2018 09:00:00 4,6 3,4 4,2 42 23 54 29 S 1007,3 7 0,0
15.01.2018 08:00:00 3,5 2,7 3,2 37 20 47 25 S 1008,7 6 0,0
15.01.2018 07:00:00 2,8 2,3 2,9 41 22 47 25 S 1010,1 2,5 0,0
15.01.2018 06:00:00 3,6 2,6 3,6 37 20 47 25 SSW 1011,1 3,3 0,0
15.01.2018 05:00:00 4,2 2,6 3,9 31 17 40 21 S 1012,1 5 0,0
15.01.2018 04:00:00 3,6 2,5 3,5 28 15 36 19 S 1013,0 4,7 0,0
15.01.2018 03:00:00 3,9 2,6 3,6 26 14 36 19 S 1013,9 4,9 0,0
15.01.2018 02:00:00 3,6 2,4 3,3 21 11 29 16 S 1015,0 4,3 0,0
15.01.2018 01:00:00 3,5 2,4 3,3 22 12 29 16 SSW 1015,9 4,8 0,0
15.01.2018 00:00:00 3,6 2,2 2,8 16 9 25 14 SSW 1016,4 5 0,0
14.01.2018 23:00:00 4,3 2,3 3,6 18 10 32 18 SSW 1016,7 6 0,0
14.01.2018 22:00:00 3,8 2,0 3,5 24 13 32 18 SSW 1017,4 6 0,0
14.01.2018 21:00:00 4,2 2,1 3,0 15 8 22 12 S 1017,7 8 0,0
14.01.2018 20:00:00 4,6 2,3 3,5 16 9 22 12 SSE 1017,6 8 0,0
14.01.2018 19:00:00 4,9 2,4 3,4 18 10 25 14 SSE 1017,6 8 0,0
14.01.2018 18:00:00 4,7 2,4 3,3 18 10 22 12 SE 1018,2 8 0,0
14.01.2018 17:00:00 4,4 2,1 3,2 15 8 22 12 E 1018,1 9 0,0
14.01.2018 16:00:00 4,6 1,9 3,7 18 10 22 12 SE 1018,4 10 0,0
14.01.2018 15:00:00 4,6 1,6 3,9 18 10 22 12 SE 1018,3 10 0,0
14.01.2018 14:00:00 5,2 1,7 5,9 18 10 22 12 SE 1018,5 10 0,0
14.01.2018 13:00:00 5,0 2,0 5,6 22 12 25 14 ESE 1018,9 10 0,0
14.01.2018 12:00:00 4,4 1,8 4,5 21 11 25 14 E 1019,4 10 0,0
14.01.2018 11:00:00 3,8 1,2 3,7 26 14 32 18 E 1019,5 10 0,0
14.01.2018 10:00:00 3,5 1,3 2,9 26 14 32 18 E 1019,6 10 0,0
14.01.2018 09:00:00 3,3 1,1 2,3 22 12 32 18 E 1019,4 10 0,0
14.01.2018 08:00:00 3,2 0,8 1,8 18 10 25 14 ENE 1019,4 10 0,0
14.01.2018 07:00:00 3,2 0,9 2,0 18 10 29 16 ENE 1019,2 10 0,0
14.01.2018 06:00:00 3,6 1,1 2,3 21 11 25 14 ENE 1019,3 10 0,0
14.01.2018 05:00:00 3,9 1,1 3,0 18 10 25 14 ENE 1019,4 10 0,0
14.01.2018 04:00:00 4,2 1,2 3,0 18 10 25 14 ENE 1019,6 10 0,0
14.01.2018 03:00:00 4,4 1,4 3,8 16 9 25 14 ENE 1019,8 10 0,0
14.01.2018 02:00:00 4,2 1,3 3,8 16 9 25 14 ENE 1019,9 10 0,0
14.01.2018 01:00:00 4,1 1,4 3,5 15 8 22 12 ENE 1020,3 10 0,0
14.01.2018 00:00:00 4,0 1,4 3,2 13 7 25 14 ENE 1020,9 10 0,0
13.01.2018 23:00:00 4,9 1,6 4,0 18 10 22 12 E 1021,1 10 0,0

tt = Température de l'air
td = dewpoint
tt 5cm = Température de l'air 5cm
ff = Vitesse du vent
fx = gusts
dd = Direction du vent
ppp = reduced air pressure
vv = visibility
rr = Quantités de précipitations

stations d'obs. à proximité